,,,PA_Meas_PMT16A,,PR_Meas_QMR101_102,,RH_Meas_QMH101,,SR_Meas_QMS101,,TA_Meas_QMH101,,GenWind,,GenWind,
date,time,status,PA,status,PR,status,RH,status,SR,status,TA,status,DirAvg,status,SpdAvg,
2012-01-29, 00:00:04,VALID,999.284,VALID,0,VALID,90.1363,VALID,0,VALID,24.7727,VALID,210,VALID,1.10273,
2012-01-29, 00:01:04,VALID,999.292,VALID,0,VALID,90.0677,VALID,0,VALID,24.7746,VALID,191,VALID,0.913281,
2012-01-29, 00:02:04,VALID,999.277,VALID,0,VALID,89.999,VALID,0,VALID,24.7746,VALID,188,VALID,0.983984,
2012-01-29, 00:03:04,VALID,999.269,VALID,0,VALID,89.8846,VALID,0,VALID,24.8136,VALID,206,VALID,0.552734,
2012-01-29, 00:04:04,VALID,999.287,VALID,0,VALID,89.8846,VALID,0,VALID,24.7727,VALID,206,VALID,0.132422,
2012-01-29, 00:05:04,VALID,999.292,VALID,0,VALID,89.8998,VALID,0,VALID,24.7941,VALID,206,VALID,0.287891,
2012-01-29, 00:06:04,VALID,999.299,VALID,0,VALID,89.8846,VALID,0,VALID,24.7746,VALID,205,VALID,0.551953,
2012-01-29, 00:07:04,VALID,999.272,VALID,0,VALID,89.8464,VALID,0,VALID,24.7551,VALID,205,VALID,0.120703,
2012-01-29, 00:08:04,VALID,999.274,VALID,0,VALID,90.1134,VALID,0,VALID,24.7356,VALID,205,VALID,0,
2012-01-29, 00:09:04,VALID,999.267,VALID,0,VALID,90.3042,VALID,0,VALID,24.6965,VALID,205,VALID,0,
2012-01-29, 00:10:04,VALID,999.258,VALID,0,VALID,90.4949,VALID,0,VALID,24.6575,VALID,205,VALID,0,
2012-01-29, 00:11:04,VALID,999.272,VALID,0,VALID,90.6094,VALID,0,VALID,24.6184,VALID,205,VALID,0.427734,
2012-01-29, 00:12:04,VALID,999.254,VALID,0,VALID,90.7009,VALID,0,VALID,24.5599,VALID,205,VALID,0.513281,
2012-01-29, 00:13:04,VALID,999.265,VALID,0,VALID,90.8383,VALID,0,VALID,24.5013,VALID,205,VALID,0.409766,
2012-01-29, 00:14:04,VALID,999.251,VALID,0,VALID,90.9603,VALID,0,VALID,24.4428,VALID,205,VALID,0.147266,
2012-01-29, 00:15:04,VALID,999.272,VALID,0,VALID,91.1129,VALID,0,VALID,24.3842,VALID,205,VALID,0,
2012-01-29, 00:16:04,VALID,999.253,VALID,0,VALID,91.2197,VALID,0,VALID,24.3452,VALID,205,VALID,0,
2012-01-29, 00:17:04,VALID,999.271,VALID,0,VALID,91.3418,VALID,0,VALID,24.3452,VALID,205,VALID,0.155859,
2012-01-29, 00:18:04,VALID,999.253,VALID,0,VALID,91.5097,VALID,0,VALID,24.3257,VALID,205,VALID,0.251172,
2012-01-29, 00:19:04,VALID,999.296,VALID,0,VALID,91.6623,VALID,0,VALID,24.3257,VALID,205,VALID,0.357422,
2012-01-29, 00:20:04,VALID,999.294,VALID,0,VALID,91.7004,VALID,0,VALID,24.3452,VALID,205,VALID,0.495313,
2012-01-29, 00:21:04,VALID,999.24,VALID,0,VALID,91.8072,VALID,0,VALID,24.3257,VALID,205,VALID,0.758203,
2012-01-29, 00:22:04,VALID,999.253,VALID,0,VALID,91.8301,VALID,0,VALID,24.3452,VALID,207,VALID,0.746094,
2012-01-29, 00:23:04,VALID,999.243,VALID,0,VALID,91.7843,VALID,0,VALID,24.3452,VALID,208,VALID,0.427344,
2012-01-29, 00:24:04,VALID,999.229,VALID,0,VALID,91.7233,VALID,0,VALID,24.3452,VALID,208,VALID,0.408594,
2012-01-29, 00:25:04,VALID,999.214,VALID,0,VALID,91.7004,VALID,0,VALID,24.3452,VALID,208,VALID,0.317578,
2012-01-29, 00:26:04,VALID,999.252,VALID,0,VALID,91.6928,VALID,0,VALID,24.3452,VALID,208,VALID,0.326953,
2012-01-29, 00:27:04,VALID,999.243,VALID,0,VALID,91.708,VALID,0,VALID,24.3452,VALID,208,VALID,0.161719,
2012-01-29, 00:28:04,VALID,999.306,VALID,0,VALID,91.7614,VALID,0,VALID,24.3257,VALID,208,VALID,0.413672,
2012-01-29, 00:29:04,VALID,999.281,VALID,0,VALID,91.8606,VALID,0,VALID,24.2866,VALID,292,VALID,0.823047,
2012-01-29, 00:30:04,VALID,999.306,VALID,0,VALID,91.9217,VALID,0,VALID,24.2671,VALID,298,VALID,0.813672,
2012-01-29, 00:31:04,VALID,999.289,VALID,0,VALID,91.9522,VALID,0,VALID,24.2476,VALID,298,VALID,0.448828,
2012-01-29, 00:32:04,VALID,999.279,VALID,0,VALID,92.0437,VALID,0,VALID,24.2086,VALID,298,VALID,0.341797,
2012-01-29, 00:33:04,VALID,999.301,VALID,0,VALID,92.1048,VALID,0,VALID,24.1891,VALID,298,VALID,0.316797,
2012-01-29, 00:34:04,VALID,999.247,VALID,0,VALID,92.1963,VALID,0,VALID,24.1696,VALID,298,VALID,0.285547,
2012-01-29, 00:35:04,VALID,999.228,VALID,0,VALID,92.2345,VALID,0,VALID,24.15,VALID,298,VALID,0.464844,
2012-01-29, 00:36:04,VALID,999.2,VALID,0,VALID,92.2955,VALID,0,VALID,24.1305,VALID,298,VALID,0.622266,
2012-01-29, 00:37:04,VALID,999.181,VALID,0,VALID,92.3184,VALID,0,VALID,24.0506,VALID,298,VALID,0.520703,
2012-01-29, 00:38:04,VALID,999.15,VALID,0,VALID,92.3108,VALID,0,VALID,24.0525,VALID,298,VALID,0.43125,
2012-01-29, 00:39:04,VALID,999.162,VALID,0,VALID,92.3337,VALID,0,VALID,23.9939,VALID,298,VALID,0.144531,
2012-01-29, 00:40:04,VALID,999.166,VALID,0,VALID,92.3566,VALID,0,VALID,23.9549,VALID,298,VALID,0,
2012-01-29, 00:41:04,VALID,999.174,VALID,0,VALID,92.3566,VALID,0,VALID,23.8963,VALID,298,VALID,0,
2012-01-29, 00:42:04,VALID,999.193,VALID,0,VALID,92.4557,VALID,0,VALID,23.8768,VALID,298,VALID,0.210938,
2012-01-29, 00:43:04,VALID,999.182,VALID,0,VALID,92.616,VALID,0,VALID,23.8573,VALID,298,VALID,0.234766,
2012-01-29, 00:44:04,VALID,999.181,VALID,0,VALID,92.7304,VALID,0,VALID,23.8378,VALID,298,VALID,0.389453,
2012-01-29, 00:45:04,VALID,999.186,VALID,0,VALID,92.8754,VALID,0,VALID,23.8378,VALID,298,VALID,0.314453,
2012-01-29, 00:46:04,VALID,999.135,VALID,0,VALID,92.9822,VALID,0,VALID,23.8183,VALID,298,VALID,0.366016,
2012-01-29, 00:47:04,VALID,999.142,VALID,0,VALID,93.0737,VALID,0,VALID,23.8378,VALID,298,VALID,0.0855469,
2012-01-29, 00:48:04,VALID,999.154,VALID,0,VALID,93.1195,VALID,0,VALID,23.8573,VALID,298,VALID,0,
2012-01-29, 00:49:04,VALID,999.16,VALID,0,VALID,93.1577,VALID,0,VALID,23.8573,VALID,298,VALID,0,
2012-01-29, 00:50:04,VALID,999.157,VALID,0,VALID,93.1882,VALID,0,VALID,23.8573,VALID,298,VALID,0,
2012-01-29, 00:51:04,VALID,999.166,VALID,0,VALID,93.2187,VALID,0,VALID,23.8573,VALID,298,VALID,0,
2012-01-29, 00:52:04,VALID,999.131,VALID,0,VALID,93.234,VALID,0,VALID,23.8378,VALID,298,VALID,0,
2012-01-29, 00:53:04,VALID,999.145,VALID,0,VALID,93.2187,VALID,0,VALID,23.8378,VALID,298,VALID,0,
2012-01-29, 00:54:04,VALID,999.135,VALID,0,VALID,93.2111,VALID,0,VALID,23.8183,VALID,298,VALID,0,
2012-01-29, 00:55:04,VALID,999.102,VALID,0,VALID,93.2187,VALID,0,VALID,23.8183,VALID,298,VALID,0,
2012-01-29, 00:56:04,VALID,999.063,VALID,0,VALID,93.2721,VALID,0,VALID,23.8183,VALID,298,VALID,0,
2012-01-29, 00:57:04,VALID,999.087,VALID,0,VALID,93.2721,VALID,0,VALID,23.8183,VALID,298,VALID,0,
2012-01-29, 00:58:04,VALID,999.067,VALID,0,VALID,93.2721,VALID,0,VALID,23.7988,VALID,298,VALID,0,
2012-01-29, 00:59:04,VALID,999.076,VALID,0,VALID,93.2492,VALID,0,VALID,23.7579,VALID,298,VALID,0,
2012-01-29, 01:00:04,VALID,999.055,VALID,0,VALID,93.1958,VALID,0,VALID,23.7402,VALID,298,VALID,0,
2012-01-29, 01:01:04,VALID,999.088,VALID,0,VALID,93.1195,VALID,0,VALID,23.7207,VALID,298,VALID,0,
2012-01-29, 01:02:04,VALID,999.071,VALID,0,VALID,93.1424,VALID,0,VALID,23.6817,VALID,298,VALID,0,
2012-01-29, 01:03:04,VALID,999.098,VALID,0,VALID,93.2492,VALID,0,VALID,23.6622,VALID,298,VALID,0,
2012-01-29, 01:04:04,VALID,999.061,VALID,0,VALID,93.3866,VALID,0,VALID,23.7012,VALID,298,VALID,0,
2012-01-29, 01:05:04,VALID,999.052,VALID,0,VALID,93.4857,VALID,0,VALID,23.7207,VALID,298,VALID,0,
2012-01-29, 01:06:04,VALID,999.047,VALID,0,VALID,93.501,VALID,0,VALID,23.6994,VALID,246,VALID,0,
2012-01-29, 01:07:04,VALID,999.055,VALID,0,VALID,93.4857,VALID,0,VALID,23.7402,VALID,171,VALID,0,
2012-01-29, 01:08:04,VALID,999.068,VALID,0,VALID,93.4857,VALID,0,VALID,23.7597,VALID,171,VALID,0,
2012-01-29, 01:09:04,VALID,999.051,VALID,0,VALID,93.4857,VALID,0,VALID,23.7597,VALID,171,VALID,0,
2012-01-29, 01:10:04,VALID,999.058,VALID,0,VALID,93.4476,VALID,0,VALID,23.7597,VALID,171,VALID,0,
2012-01-29, 01:11:04,VALID,999.05,VALID,0,VALID,93.4094,VALID,0,VALID,23.7597,VALID,171,VALID,0,
2012-01-29, 01:12:04,VALID,999.048,VALID,0,VALID,93.356,VALID,0,VALID,23.7402,VALID,171,VALID,0,
2012-01-29, 01:13:04,VALID,999.017,VALID,0,VALID,93.3179,VALID,0,VALID,23.7207,VALID,171,VALID,0,
2012-01-29, 01:14:04,VALID,998.971,VALID,0,VALID,93.3331,VALID,0,VALID,23.7207,VALID,171,VALID,0,
2012-01-29, 01:15:04,VALID,998.983,VALID,0,VALID,93.3866,VALID,0,VALID,23.7207,VALID,170,VALID,0,
2012-01-29, 01:16:04,VALID,998.981,VALID,0,VALID,93.3789,VALID,0,VALID,23.7207,VALID,114,VALID,0,
2012-01-29, 01:17:04,VALID,998.942,VALID,0,VALID,93.3103,VALID,0,VALID,23.6817,VALID,114,VALID,0,
2012-01-29, 01:18:04,VALID,998.929,VALID,0,VALID,93.2263,VALID,0,VALID,23.6622,VALID,114,VALID,0,
2012-01-29, 01:19:04,VALID,998.928,VALID,0,VALID,93.2034,VALID,0,VALID,23.6232,VALID,114,VALID,0,
2012-01-29, 01:20:04,VALID,998.93,VALID,0,VALID,93.2416,VALID,0,VALID,23.5823,VALID,114,VALID,0,
2012-01-29, 01:21:04,VALID,998.894,VALID,0,VALID,93.3484,VALID,0,VALID,23.6232,VALID,114,VALID,0.640625,
2012-01-29, 01:22:04,VALID,998.875,VALID,0,VALID,93.4552,VALID,0,VALID,23.6232,VALID,76,VALID,0.806641,
2012-01-29, 01:23:04,VALID,998.839,VALID,0,VALID,93.5163,VALID,0,VALID,23.6232,VALID,69,VALID,0.891406,
2012-01-29, 01:24:04,VALID,998.813,VALID,0,VALID,93.4628,VALID,0,VALID,23.5823,VALID,69,VALID,0.723828,
2012-01-29, 01:25:04,VALID,998.778,VALID,0,VALID,93.356,VALID,0,VALID,23.5646,VALID,54,VALID,0.830078,
2012-01-29, 01:26:04,VALID,998.778,VALID,0,VALID,93.2568,VALID,0.104696,VALID,23.4866,VALID,54,VALID,0.897656,
2012-01-29, 01:27:04,VALID,998.781,VALID,0,VALID,93.234,VALID,0,VALID,23.4475,VALID,54,VALID,0.939844,
2012-01-29, 01:28:04,VALID,998.774,VALID,0,VALID,93.3637,VALID,0,VALID,23.428,VALID,54,VALID,0.898047,
2012-01-29, 01:29:04,VALID,998.779,VALID,0,VALID,93.4781,VALID,0,VALID,23.428,VALID,54,VALID,0.805859,
2012-01-29, 01:30:04,VALID,998.782,VALID,0,VALID,93.5544,VALID,0,VALID,23.4085,VALID,54,VALID,0.872656,
2012-01-29, 01:31:04,VALID,998.798,VALID,0,VALID,93.6383,VALID,0,VALID,23.428,VALID,59,VALID,1.04648,
2012-01-29, 01:32:04,VALID,998.799,VALID,0,VALID,93.7299,VALID,0,VALID,23.428,VALID,60,VALID,0.988281,
2012-01-29, 01:33:04,VALID,998.827,VALID,0,VALID,93.7528,VALID,0,VALID,23.4475,VALID,60,VALID,1.03594,
2012-01-29, 01:34:04,VALID,998.81,VALID,0,VALID,93.8138,VALID,0,VALID,23.4475,VALID,60,VALID,0.882422,
2012-01-29, 01:35:04,VALID,998.838,VALID,0,VALID,93.852,VALID,0,VALID,23.4475,VALID,60,VALID,0.971484,
2012-01-29, 01:36:04,VALID,998.841,VALID,0,VALID,93.852,VALID,0,VALID,23.4475,VALID,60,VALID,1.02656,
2012-01-29, 01:37:04,VALID,998.883,VALID,0,VALID,93.8825,VALID,0,VALID,23.4263,VALID,60,VALID,0.844141,
2012-01-29, 01:38:04,VALID,998.86,VALID,0,VALID,93.8825,VALID,0,VALID,23.4475,VALID,60,VALID,0.877344,
2012-01-29, 01:39:04,VALID,998.869,VALID,0,VALID,93.8977,VALID,0,VALID,23.4475,VALID,60,VALID,0.654297,
2012-01-29, 01:40:04,VALID,998.857,VALID,0,VALID,93.9206,VALID,0,VALID,23.4263,VALID,60,VALID,0.580078,
2012-01-29, 01:41:04,VALID,998.91,VALID,0,VALID,93.913,VALID,0,VALID,23.4475,VALID,60,VALID,0.596484,
2012-01-29, 01:42:04,VALID,998.884,VALID,0,VALID,93.9054,VALID,0,VALID,23.4475,VALID,60,VALID,0.283594,
2012-01-29, 01:43:04,VALID,998.907,VALID,0,VALID,93.8901,VALID,0,VALID,23.428,VALID,60,VALID,0,
2012-01-29, 01:44:04,VALID,998.866,VALID,0,VALID,93.8901,VALID,0,VALID,23.428,VALID,60,VALID,0,
2012-01-29, 01:45:04,VALID,998.898,VALID,0,VALID,93.8672,VALID,0,VALID,23.428,VALID,60,VALID,0.265625,
2012-01-29, 01:46:04,VALID,998.901,VALID,0,VALID,93.9054,VALID,0,VALID,23.428,VALID,60,VALID,0,
2012-01-29, 01:47:04,VALID,998.906,VALID,0,VALID,93.9359,VALID,0,VALID,23.428,VALID,60,VALID,0,
2012-01-29, 01:48:04,VALID,998.915,VALID,0,VALID,93.9511,VALID,0,VALID,23.4475,VALID,60,VALID,0,
2012-01-29, 01:49:04,VALID,998.918,VALID,0,VALID,93.9435,VALID,0,VALID,23.4475,VALID,60,VALID,0,
2012-01-29, 01:50:04,VALID,998.884,VALID,0,VALID,93.9511,VALID,0,VALID,23.4263,VALID,60,VALID,0,
2012-01-29, 01:51:04,VALID,998.897,VALID,0,VALID,93.9588,VALID,0,VALID,23.4475,VALID,60,VALID,0,
2012-01-29, 01:52:04,VALID,998.911,VALID,0,VALID,93.9588,VALID,0,VALID,23.4475,VALID,60,VALID,0,
2012-01-29, 01:53:04,VALID,998.929,VALID,0,VALID,93.9511,VALID,0,VALID,23.4475,VALID,60,VALID,0,
2012-01-29, 01:54:04,VALID,998.896,VALID,0,VALID,93.9588,VALID,0,VALID,23.428,VALID,60,VALID,0,
2012-01-29, 01:55:04,VALID,998.878,VALID,0,VALID,93.9664,VALID,0,VALID,23.428,VALID,60,VALID,0,
2012-01-29, 01:56:04,VALID,998.917,VALID,0,VALID,93.9817,VALID,0,VALID,23.4475,VALID,60,VALID,0,
2012-01-29, 01:57:04,VALID,998.89,VALID,0,VALID,93.9969,VALID,0,VALID,23.428,VALID,60,VALID,0,
2012-01-29, 01:58:04,VALID,998.895,VALID,0,VALID,93.9893,VALID,0,VALID,23.4475,VALID,60,VALID,0,
2012-01-29, 01:59:04,VALID,998.914,VALID,0,VALID,94.0122,VALID,0,VALID,23.428,VALID,60,VALID,0,
2012-01-29, 02:00:04,VALID,998.893,VALID,0,VALID,94.0351,VALID,0,VALID,23.4475,VALID,60,VALID,0,
2012-01-29, 02:01:04,VALID,998.885,VALID,0,VALID,94.0503,VALID,0,VALID,23.4671,VALID,60,VALID,0,
2012-01-29, 02:02:04,VALID,998.869,VALID,0,VALID,94.0808,VALID,0,VALID,23.4458,VALID,60,VALID,0,
2012-01-29, 02:03:04,VALID,998.849,VALID,0,VALID,94.0503,VALID,0,VALID,23.4475,VALID,60,VALID,0,
2012-01-29, 02:04:04,VALID,998.839,VALID,0,VALID,93.9893,VALID,0,VALID,23.4085,VALID,60,VALID,0,
2012-01-29, 02:05:04,VALID,998.783,VALID,0,VALID,93.9969,VALID,0,VALID,23.428,VALID,60,VALID,0,
2012-01-29, 02:06:04,VALID,998.778,VALID,0,VALID,94.0503,VALID,0,VALID,23.428,VALID,60,VALID,1.00039,
2012-01-29, 02:07:04,VALID,998.751,VALID,0,VALID,94.0732,VALID,0,VALID,23.4263,VALID,60,VALID,0.927734,
2012-01-29, 02:08:04,VALID,998.727,VALID,0,VALID,94.1114,VALID,0,VALID,23.4884,VALID,60,VALID,0.453516,
2012-01-29, 02:09:04,VALID,998.714,VALID,0,VALID,94.1266,VALID,0,VALID,23.4671,VALID,60,VALID,0.367969,
2012-01-29, 02:10:04,VALID,998.693,VALID,0,VALID,94.1419,VALID,0,VALID,23.4653,VALID,148,VALID,0.597266,
2012-01-29, 02:11:04,VALID,998.711,VALID,0,VALID,94.119,VALID,0,VALID,23.4848,VALID,167,VALID,0.369141,
2012-01-29, 02:12:04,VALID,998.703,VALID,0,VALID,94.1266,VALID,0,VALID,23.5256,VALID,167,VALID,0.349609,
2012-01-29, 02:13:04,VALID,998.702,VALID,0,VALID,94.1266,VALID,0,VALID,23.5451,VALID,167,VALID,0.209766,
2012-01-29, 02:14:04,VALID,998.687,VALID,0,VALID,94.1037,VALID,0,VALID,23.5451,VALID,167,VALID,0,
2012-01-29, 02:15:04,VALID,998.673,VALID,0,VALID,94.119,VALID,0,VALID,23.5451,VALID,167,VALID,0,
2012-01-29, 02:16:04,VALID,998.648,VALID,0,VALID,94.0732,VALID,0,VALID,23.5256,VALID,167,VALID,0,
2012-01-29, 02:17:04,VALID,998.631,VALID,0,VALID,94.0274,VALID,0,VALID,23.5256,VALID,167,VALID,0.713281,
2012-01-29, 02:18:04,VALID,998.616,VALID,0,VALID,94.0122,VALID,0,VALID,23.5061,VALID,167,VALID,0.412109,
2012-01-29, 02:19:04,VALID,998.583,VALID,0,VALID,93.974,VALID,0,VALID,23.5061,VALID,167,VALID,0.446875,
2012-01-29, 02:20:04,VALID,998.574,VALID,0,VALID,93.9664,VALID,0,VALID,23.4671,VALID,167,VALID,0.471484,
2012-01-29, 02:21:04,VALID,998.551,VALID,0,VALID,93.9435,VALID,0,VALID,23.4671,VALID,167,VALID,0.576172,
2012-01-29, 02:22:04,VALID,998.555,VALID,0,VALID,93.9664,VALID,0,VALID,23.4848,VALID,167,VALID,0.439453,
2012-01-29, 02:23:04,VALID,998.539,VALID,0,VALID,93.9817,VALID,0,VALID,23.4848,VALID,167,VALID,0.441016,
2012-01-29, 02:24:04,VALID,998.571,VALID,0,VALID,93.9664,VALID,0,VALID,23.5061,VALID,165,VALID,0.667578,
2012-01-29, 02:25:04,VALID,998.565,VALID,0,VALID,93.9206,VALID,0,VALID,23.4671,VALID,153,VALID,0.820313,
2012-01-29, 02:26:04,VALID,998.582,VALID,0,VALID,93.8901,VALID,0,VALID,23.4475,VALID,152,VALID,0.801172,
2012-01-29, 02:27:04,VALID,998.607,VALID,0,VALID,93.8825,VALID,0,VALID,23.428,VALID,152,VALID,0.708594,
2012-01-29, 02:28:04,VALID,998.639,VALID,0,VALID,93.8825,VALID,0,VALID,23.4085,VALID,152,VALID,0.785937,
2012-01-29, 02:29:04,VALID,998.656,VALID,0,VALID,93.8291,VALID,0,VALID,23.389,VALID,133,VALID,0.898828,
2012-01-29, 02:30:04,VALID,998.633,VALID,0,VALID,93.8214,VALID,0,VALID,23.3695,VALID,131,VALID,0.849609,
2012-01-29, 02:31:04,VALID,998.645,VALID,0,VALID,93.8748,VALID,0,VALID,23.3695,VALID,131,VALID,0.771875,
2012-01-29, 02:32:04,VALID,998.64,VALID,0,VALID,93.9283,VALID,0,VALID,23.3695,VALID,131,VALID,0.671484,
2012-01-29, 02:33:04,VALID,998.621,VALID,0,VALID,93.9664,VALID,0,VALID,23.3695,VALID,131,VALID,0.3875,
2012-01-29, 02:34:04,VALID,998.624,VALID,0,VALID,93.9817,VALID,0,VALID,23.3695,VALID,131,VALID,0.398438,
2012-01-29, 02:35:04,VALID,998.604,VALID,0,VALID,93.9969,VALID,0,VALID,23.3695,VALID,131,VALID,0,
2012-01-29, 02:36:04,VALID,998.563,VALID,0,VALID,94.0427,VALID,0.104696,VALID,23.3695,VALID,131,VALID,0,
2012-01-29, 02:37:04,VALID,998.604,VALID,0,VALID,94.0198,VALID,0,VALID,23.3482,VALID,131,VALID,0,
2012-01-29, 02:38:04,VALID,998.604,VALID,0,VALID,94.0122,VALID,0,VALID,23.35,VALID,131,VALID,0,
2012-01-29, 02:39:04,VALID,998.597,VALID,0,VALID,93.9817,VALID,0,VALID,23.3092,VALID,131,VALID,0,
2012-01-29, 02:40:04,VALID,998.587,VALID,0,VALID,94.0122,VALID,0,VALID,23.3092,VALID,131,VALID,0,
2012-01-29, 02:41:04,VALID,998.602,VALID,0,VALID,93.9969,VALID,0,VALID,23.2915,VALID,131,VALID,0,
2012-01-29, 02:42:04,VALID,998.604,VALID,0,VALID,94.0274,VALID,0,VALID,23.311,VALID,131,VALID,0,
2012-01-29, 02:43:04,VALID,998.56,VALID,0,VALID,94.058,VALID,0,VALID,23.2915,VALID,131,VALID,0,
2012-01-29, 02:44:04,VALID,998.551,VALID,0,VALID,94.0656,VALID,0,VALID,23.2915,VALID,131,VALID,0,
2012-01-29, 02:45:04,VALID,998.546,VALID,0,VALID,94.1037,VALID,0,VALID,23.3127,VALID,131,VALID,0,
2012-01-29, 02:46:04,VALID,998.558,VALID,0,VALID,94.1343,VALID,0,VALID,23.2719,VALID,131,VALID,0,
2012-01-29, 02:47:04,VALID,998.495,VALID,0,VALID,94.1266,VALID,0,VALID,23.2719,VALID,131,VALID,0,
2012-01-29, 02:48:04,VALID,998.512,VALID,0,VALID,94.1343,VALID,0,VALID,23.2507,VALID,131,VALID,0,
2012-01-29, 02:49:05,VALID,998.498,VALID,0,VALID,94.18,VALID,0,VALID,23.2915,VALID,158,VALID,0.528516,
2012-01-29, 02:50:05,VALID,998.52,VALID,0,VALID,94.2182,VALID,0,VALID,23.311,VALID,158,VALID,0.38125,
2012-01-29, 02:51:05,VALID,998.524,VALID,0,VALID,94.2334,VALID,0,VALID,23.311,VALID,158,VALID,0,
2012-01-29, 02:52:05,VALID,998.526,VALID,0,VALID,94.2258,VALID,0,VALID,23.3305,VALID,158,VALID,0,
2012-01-29, 02:53:05,VALID,998.554,VALID,0,VALID,94.2334,VALID,0,VALID,23.3305,VALID,220,VALID,0.924219,
2012-01-29, 02:54:05,VALID,998.554,VALID,0,VALID,94.264,VALID,0,VALID,23.3287,VALID,238,VALID,0.785937,
2012-01-29, 02:55:05,VALID,998.565,VALID,0,VALID,94.264,VALID,0,VALID,23.35,VALID,228,VALID,0.862891,
2012-01-29, 02:56:05,VALID,998.58,VALID,0,VALID,94.2716,VALID,0,VALID,23.35,VALID,232,VALID,0.910547,
2012-01-29, 02:57:05,VALID,998.601,VALID,0,VALID,94.2868,VALID,0,VALID,23.35,VALID,220,VALID,1.00781,
2012-01-29, 02:58:05,VALID,998.617,VALID,0,VALID,94.2945,VALID,0,VALID,23.3482,VALID,219,VALID,1.41836,
2012-01-29, 02:59:05,VALID,998.641,VALID,0,VALID,94.3021,VALID,0.104696,VALID,23.4085,VALID,218,VALID,1.36289,
2012-01-29, 03:00:05,VALID,998.672,VALID,0,VALID,94.2868,VALID,0,VALID,23.4067,VALID,221,VALID,1.07383,
2012-01-29, 03:01:05,VALID,998.691,VALID,0,VALID,94.2487,VALID,0,VALID,23.428,VALID,223,VALID,1.14844,
2012-01-29, 03:02:05,VALID,998.688,VALID,0,VALID,94.2411,VALID,0,VALID,23.428,VALID,235,VALID,1.19727,
2012-01-29, 03:03:05,VALID,998.697,VALID,0,VALID,94.2411,VALID,0,VALID,23.428,VALID,225,VALID,1.47578,
2012-01-29, 03:04:05,VALID,998.703,VALID,0,VALID,94.2182,VALID,0,VALID,23.4671,VALID,216,VALID,1.23164,
2012-01-29, 03:05:05,VALID,998.723,VALID,0,VALID,94.2105,VALID,0,VALID,23.4671,VALID,214,VALID,0.880859,
2012-01-29, 03:06:05,VALID,998.738,VALID,0,VALID,94.2029,VALID,0,VALID,23.4475,VALID,212,VALID,1.14141,
2012-01-29, 03:07:05,VALID,998.771,VALID,0,VALID,94.1953,VALID,0,VALID,23.4671,VALID,221,VALID,1.2,
2012-01-29, 03:08:05,VALID,998.757,VALID,0,VALID,94.1953,VALID,0,VALID,23.4671,VALID,210,VALID,1.14766,
2012-01-29, 03:09:05,VALID,998.773,VALID,0,VALID,94.18,VALID,0,VALID,23.4866,VALID,225,VALID,1.13945,
2012-01-29, 03:10:05,VALID,998.769,VALID,0,VALID,94.1571,VALID,0,VALID,23.4866,VALID,213,VALID,0.881641,
2012-01-29, 03:11:05,VALID,998.791,VALID,0,VALID,94.1571,VALID,0,VALID,23.5061,VALID,210,VALID,1.18438,
2012-01-29, 03:12:05,VALID,998.801,VALID,0,VALID,94.1495,VALID,0,VALID,23.5061,VALID,196,VALID,1.02969,
2012-01-29, 03:13:05,VALID,998.797,VALID,0,VALID,94.1419,VALID,0,VALID,23.5043,VALID,202,VALID,0.975391,
2012-01-29, 03:14:05,VALID,998.841,VALID,0,VALID,94.1266,VALID,0,VALID,23.5256,VALID,192,VALID,0.961719,
2012-01-29, 03:15:05,VALID,998.833,VALID,0,VALID,94.1114,VALID,0,VALID,23.5238,VALID,191,VALID,1.20547,
2012-01-29, 03:16:05,VALID,998.869,VALID,0,VALID,94.0732,VALID,0,VALID,23.5451,VALID,197,VALID,0.966797,
2012-01-29, 03:17:05,VALID,998.888,VALID,0,VALID,94.058,VALID,0,VALID,23.5238,VALID,196,VALID,1.1125,
2012-01-29, 03:18:05,VALID,998.919,VALID,0,VALID,94.0427,VALID,0,VALID,23.5451,VALID,170,VALID,1.23984,
2012-01-29, 03:19:05,VALID,998.951,VALID,0,VALID,94.0503,VALID,0,VALID,23.5451,VALID,165,VALID,1.16523,
2012-01-29, 03:20:05,VALID,998.959,VALID,0,VALID,93.9817,VALID,0,VALID,23.5256,VALID,161,VALID,1.28047,
2012-01-29, 03:21:05,VALID,998.997,VALID,0,VALID,93.9283,VALID,0,VALID,23.4866,VALID,157,VALID,1.56953,
2012-01-29, 03:22:05,VALID,998.982,VALID,0,VALID,93.8825,VALID,0,VALID,23.4671,VALID,152,VALID,1.53672,
2012-01-29, 03:23:05,VALID,999.016,VALID,0,VALID,93.8596,VALID,0,VALID,23.4067,VALID,161,VALID,1.16211,
2012-01-29, 03:24:05,VALID,999.04,VALID,0,VALID,93.8367,VALID,0,VALID,23.428,VALID,167,VALID,1.37969,
2012-01-29, 03:25:05,VALID,999.041,VALID,0,VALID,93.8672,VALID,0,VALID,23.428,VALID,171,VALID,1.325,
2012-01-29, 03:26:05,VALID,999.066,VALID,0,VALID,93.8672,VALID,0,VALID,23.4085,VALID,175,VALID,1.22266,
2012-01-29, 03:27:05,VALID,999.064,VALID,0,VALID,93.8977,VALID,0,VALID,23.428,VALID,173,VALID,0.962109,
2012-01-29, 03:28:05,VALID,999.053,VALID,0,VALID,93.8825,VALID,0,VALID,23.4067,VALID,173,VALID,0.897266,
2012-01-29, 03:29:05,VALID,999.036,VALID,0,VALID,93.8901,VALID,0,VALID,23.428,VALID,168,VALID,0.961328,
2012-01-29, 03:30:05,VALID,999.035,VALID,0,VALID,93.8977,VALID,0,VALID,23.428,VALID,160,VALID,0.764063,
2012-01-29, 03:31:05,VALID,999.011,VALID,0,VALID,93.9054,VALID,0,VALID,23.4263,VALID,147,VALID,0.639844,
2012-01-29, 03:32:05,VALID,999.043,VALID,0,VALID,93.8977,VALID,0,VALID,23.4475,VALID,98,VALID,0.923047,
2012-01-29, 03:33:05,VALID,999.031,VALID,0,VALID,93.9511,VALID,0,VALID,23.4475,VALID,80,VALID,1.12578,
2012-01-29, 03:34:05,VALID,999.043,VALID,0,VALID,93.9664,VALID,0,VALID,23.4671,VALID,76,VALID,1.30156,
2012-01-29, 03:35:05,VALID,999.049,VALID,0,VALID,93.9969,VALID,0,VALID,23.4475,VALID,63,VALID,1.35312,
2012-01-29, 03:36:05,VALID,999.038,VALID,0,VALID,93.9969,VALID,0,VALID,23.4085,VALID,52,VALID,1.55234,
2012-01-29, 03:37:05,VALID,999.069,VALID,0,VALID,94.0198,VALID,0,VALID,23.428,VALID,64,VALID,1.23242,
2012-01-29, 03:38:05,VALID,999.089,VALID,0,VALID,94.0122,VALID,0,VALID,23.4085,VALID,68,VALID,1.13242,
2012-01-29, 03:39:05,VALID,999.116,VALID,0,VALID,94.0045,VALID,0,VALID,23.4085,VALID,71,VALID,1.33516,
2012-01-29, 03:40:05,VALID,999.16,VALID,0,VALID,94.0122,VALID,0,VALID,23.389,VALID,64,VALID,0.972656,
2012-01-29, 03:41:05,VALID,999.145,VALID,0,VALID,94.0122,VALID,0,VALID,23.389,VALID,62,VALID,1.01953,
2012-01-29, 03:42:05,VALID,999.153,VALID,0,VALID,93.9969,VALID,0,VALID,23.389,VALID,56,VALID,1.18086,
2012-01-29, 03:43:05,VALID,999.154,VALID,0,VALID,93.9893,VALID,0,VALID,23.3695,VALID,63,VALID,0.904688,
2012-01-29, 03:44:05,VALID,999.176,VALID,0,VALID,93.9817,VALID,0,VALID,23.3695,VALID,54,VALID,0.871875,
2012-01-29, 03:45:05,VALID,999.187,VALID,0,VALID,93.974,VALID,0,VALID,23.35,VALID,53,VALID,0.662891,
2012-01-29, 03:46:05,VALID,999.182,VALID,0,VALID,93.974,VALID,0,VALID,23.35,VALID,41,VALID,1.13437,
2012-01-29, 03:47:05,VALID,999.193,VALID,0,VALID,93.9893,VALID,0,VALID,23.35,VALID,38,VALID,0.739062,
2012-01-29, 03:48:05,VALID,999.173,VALID,0,VALID,93.974,VALID,0,VALID,23.3092,VALID,26,VALID,0.712109,
2012-01-29, 03:49:05,VALID,999.183,VALID,0,VALID,93.9817,VALID,0,VALID,23.311,VALID,33,VALID,0.644141,
2012-01-29, 03:50:05,VALID,999.193,VALID,0,VALID,93.974,VALID,0,VALID,23.3305,VALID,33,VALID,0.615625,